• Em Portugal
  • Lista de países
  • Para 7 dias
  • Temperatura da água
  • Mapas de satélite
  • Mapa do tempo
  • Widgets de tempo
  • user-avatar
    Iniciar Sessão

    Previsão horária em Malanje

    Hoje, 18 Julho, Quarta-feira

    Tempo Temperatura Precipitação Vento Pressão Humidade
    00:00 +21°C° 0 mm 1 m/s 667 mmHg 31%
    01:00 +19°C° 0 mm 2 m/s 668 mmHg 37%
    02:00 +19°C° 0 mm 2 m/s 667 mmHg 38%
    03:00 +18°C° 0 mm 2 m/s 667 mmHg 40%
    04:00 +18°C° 0 mm 2 m/s 667 mmHg 41%
    05:00 +18°C° 0 mm 2 m/s 667 mmHg 42%
    06:00 +18°C° 0 mm 3 m/s 667 mmHg 42%
    07:00 +18°C° 0 mm 3 m/s 668 mmHg 43%
    08:00 +20°C° 0 mm 3 m/s 668 mmHg 37%
    09:00 +23°C° 0 mm 4 m/s 669 mmHg 32%
    10:00 +27°C° 0 mm 4 m/s 670 mmHg 26%
    11:00 +28°C° 0 mm 4 m/s 669 mmHg 23%
    12:00 +29°C° 0 mm 3 m/s 669 mmHg 20%
    13:00 +31°C° 0 mm 3 m/s 669 mmHg 17%
    14:00 +31°C° 0 mm 3 m/s 668 mmHg 17%
    15:00 +31°C° 0 mm 2 m/s 668 mmHg 16%
    16:00 +31°C° 0 mm 2 m/s 667 mmHg 16%
    17:00 +29°C° 0 mm 2 m/s 667 mmHg 19%
    18:00 +27°C° 0 mm 2 m/s 667 mmHg 21%
    19:00 +25°C° 0 mm 1 m/s 667 mmHg 24%
    20:00 +24°C° 0 mm 2 m/s 667 mmHg 25%
    21:00 +23°C° 0 mm 2 m/s 668 mmHg 27%
    22:00 +21°C° 0 mm 2 m/s 668 mmHg 28%
    23:00 +21°C° 0 mm 2 m/s 668 mmHg 29%

    Amanhã, 19 Julho, Quinta-feira

    Tempo Temperatura Precipitação Vento Pressão Humidade
    00:00 +20°C° 0 mm 2 m/s 668 mmHg 30%
    01:00 +20°C° 0 mm 2 m/s 667 mmHg 31%
    02:00 +19°C° 0 mm 2 m/s 667 mmHg 33%
    03:00 +19°C° 0 mm 2 m/s 667 mmHg 35%
    04:00 +18°C° 0 mm 2 m/s 666 mmHg 37%
    05:00 +18°C° 0 mm 3 m/s 667 mmHg 38%
    06:00 +18°C° 0 mm 3 m/s 667 mmHg 39%
    07:00 +18°C° 0 mm 3 m/s 667 mmHg 40%
    08:00 +21°C° 0 mm 3 m/s 668 mmHg 34%
    09:00 +23°C° 0 mm 4 m/s 669 mmHg 29%
    10:00 +27°C° 0 mm 4 m/s 669 mmHg 23%
    11:00 +29°C° 0 mm 3 m/s 669 mmHg 20%
    12:00 +31°C° 0 mm 3 m/s 669 mmHg 18%
    13:00 +32°C° 0 mm 2 m/s 668 mmHg 15%
    14:00 +34°C° 0 mm 2 m/s 668 mmHg 14%
    15:00 +33°C° 0 mm 1 m/s 667 mmHg 14%
    16:00 +33°C° 0 mm 1 m/s 667 mmHg 13%
    17:00 +30°C° 0 mm 1 m/s 666 mmHg 15%
    18:00 +28°C° 0 mm 1 m/s 666 mmHg 17%
    19:00 +26°C° 0 mm 1 m/s 666 mmHg 19%
    20:00 +25°C° 0 mm 1 m/s 666 mmHg 21%
    21:00 +24°C° 0 mm 1 m/s 667 mmHg 22%
    22:00 +23°C° 0 mm 1 m/s 667 mmHg 23%
    23:00 +22°C° 0 mm 1 m/s 667 mmHg 26%

    Depois de amanhã, 20 Julho, Sexta-feira

    Tempo Temperatura Precipitação Vento Pressão Humidade
    00:00 +21°C° 0 mm 1 m/s 667 mmHg 28%
    01:00 +21°C° 0 mm 1 m/s 666 mmHg 31%
    02:00 +20°C° 0 mm 1 m/s 666 mmHg 34%
    03:00 +19°C° 0 mm 1 m/s 666 mmHg 37%
    04:00 +19°C° 0 mm 1 m/s 666 mmHg 39%
    05:00 +18°C° 0 mm 2 m/s 666 mmHg 38%
    06:00 +18°C° 0 mm 2 m/s 666 mmHg 37%
    07:00 +18°C° 0 mm 3 m/s 667 mmHg 36%
    08:00 +21°C° 0 mm 3 m/s 668 mmHg 31%
    09:00 +25°C° 0 mm 3 m/s 668 mmHg 26%
    10:00 +28°C° 0 mm 4 m/s 669 mmHg 21%
    11:00 +29°C° 0 mm 3 m/s 668 mmHg 19%
    12:00 +31°C° 0 mm 3 m/s 668 mmHg 16%
    13:00 +34°C° 0 mm 2 m/s 668 mmHg 14%
    14:00 +34°C° 0 mm 2 m/s 667 mmHg 13%
    15:00 +33°C° 0 mm 1 m/s 666 mmHg 13%
    16:00 +34°C° 0 mm 1 m/s 666 mmHg 12%
    17:00 +31°C° 0 mm 1 m/s 666 mmHg 14%
    18:00 +29°C° 0 mm 1 m/s 666 mmHg 16%
    19:00 +26°C° 0 mm 1 m/s 665 mmHg 18%
    20:00 +25°C° 0 mm 1 m/s 666 mmHg 19%
    21:00 +24°C° 0 mm 1 m/s 666 mmHg 20%
    22:00 +24°C° 0 mm 1 m/s 667 mmHg 21%
    23:00 +23°C° 0 mm 1 m/s 666 mmHg 24%

    21 Julho, Sábado

    Tempo Temperatura Precipitação Vento Pressão Humidade
    00:00 +22°C° 0 mm 1 m/s 666 mmHg 27%
    01:00 +21°C° 0 mm 1 m/s 666 mmHg 30%
    02:00 +20°C° 0 mm 1 m/s 666 mmHg 32%
    03:00 +20°C° 0 mm 1 m/s 665 mmHg 35%
    04:00 +19°C° 0 mm 1 m/s 665 mmHg 37%
    05:00 +19°C° 0 mm 1 m/s 666 mmHg 36%
    06:00 +18°C° 0 mm 2 m/s 666 mmHg 34%
    07:00 +18°C° 0 mm 2 m/s 667 mmHg 33%
    08:00 +21°C° 0 mm 2 m/s 667 mmHg 28%
    09:00 +25°C° 0 mm 3 m/s 668 mmHg 24%
    10:00 +28°C° 0 mm 3 m/s 669 mmHg 19%
    11:00 +30°C° 0 mm 3 m/s 669 mmHg 17%
    12:00 +32°C° 0 mm 2 m/s 668 mmHg 15%
    13:00 +35°C° 0 mm 2 m/s 668 mmHg 13%
    14:00 +35°C° 0 mm 2 m/s 667 mmHg 13%
    15:00 +34°C° 0 mm 1 m/s 667 mmHg 13%
    16:00 +34°C° 0 mm 1 m/s 666 mmHg 12%
    17:00 +32°C° 0 mm 1 m/s 666 mmHg 14%
    18:00 +29°C° 0 mm 1 m/s 666 mmHg 16%
    19:00 +27°C° 0 mm 1 m/s 666 mmHg 19%
    20:00 +26°C° 0 mm 1 m/s 667 mmHg 21%
    21:00 +25°C° 0 mm 1 m/s 667 mmHg 23%
    22:00 +24°C° 0 mm 1 m/s 667 mmHg 25%
    23:00 +23°C° 0 mm 1 m/s 667 mmHg 33%

    22 Julho, Domingo

    Tempo Temperatura Precipitação Vento Pressão Humidade
    00:00 +22°C° 0 mm 1 m/s 667 mmHg 41%
    01:00 +20°C° 0 mm 2 m/s 666 mmHg 49%
    02:00 +20°C° 0 mm 1 m/s 666 mmHg 55%
    03:00 +19°C° 0 mm 1 m/s 666 mmHg 61%
    04:00 +18°C° 0 mm 1 m/s 665 mmHg 67%
    05:00 +18°C° 0 mm 1 m/s 666 mmHg 64%
    06:00 +19°C° 0 mm 1 m/s 667 mmHg 61%
    07:00 +19°C° 0 mm 1 m/s 667 mmHg 58%
    08:00 +22°C° 0 mm 1 m/s 668 mmHg 45%
    09:00 +25°C° 0 mm 2 m/s 669 mmHg 33%
    10:00 +29°C° 0 mm 2 m/s 669 mmHg 20%
    11:00 +30°C° 0 mm 2 m/s 669 mmHg 18%
    12:00 +32°C° 0 mm 2 m/s 669 mmHg 16%
    13:00 +35°C° 0 mm 2 m/s 668 mmHg 13%
    14:00 +35°C° 0 mm 2 m/s 668 mmHg 13%
    15:00 +35°C° 0 mm 2 m/s 667 mmHg 13%
    16:00 +35°C° 0 mm 2 m/s 666 mmHg 13%
    17:00 +32°C° 0 mm 1 m/s 666 mmHg 15%
    18:00 +29°C° 0 mm 1 m/s 666 mmHg 17%
    19:00 +27°C° 0 mm 1 m/s 666 mmHg 20%
    20:00 +26°C° 0 mm 1 m/s 667 mmHg 21%
    21:00 +25°C° 0 mm 1 m/s 667 mmHg 22%
    22:00 +22°C° 0 mm 0 m/s 667 mmHg 24%
    23:00 +23°C° 0 mm 1 m/s 667 mmHg 30%

    23 Julho, Segunda-feira

    Tempo Temperatura Precipitação Vento Pressão Humidade
    00:00 +22°C° 0 mm 1 m/s 667 mmHg 37%
    01:00 +21°C° 0 mm 1 m/s 666 mmHg 44%
    02:00 +21°C° 0 mm 1 m/s 666 mmHg 49%
    03:00 +20°C° 0 mm 1 m/s 666 mmHg 55%
    04:00 +19°C° 0 mm 1 m/s 666 mmHg 60%
    05:00 +19°C° 0 mm 1 m/s 666 mmHg 56%
    06:00 +19°C° 0 mm 1 m/s 667 mmHg 52%
    07:00 +20°C° 0 mm 1 m/s 667 mmHg 48%
    08:00 +23°C° 0 mm 2 m/s 668 mmHg 38%
    09:00 +26°C° 0 mm 2 m/s 668 mmHg 28%
    10:00 +29°C° 0 mm 3 m/s 669 mmHg 18%
    11:00 +31°C° 0 mm 3 m/s 669 mmHg 16%
    12:00 +34°C° 0 mm 3 m/s 668 mmHg 14%
    13:00 +36°C° 0 mm 2 m/s 668 mmHg 12%
    14:00 +36°C° 0 mm 2 m/s 667 mmHg 12%
    15:00 +36°C° 0 mm 2 m/s 667 mmHg 12%
    16:00 +36°C° 0 mm 2 m/s 666 mmHg 12%
    17:00 +32°C° 0 mm 1 m/s 666 mmHg 14%
    18:00 +30°C° 0 mm 1 m/s 666 mmHg 16%
    19:00 +28°C° 0 mm 1 m/s 666 mmHg 18%
    20:00 +27°C° 0 mm 1 m/s 666 mmHg 20%
    21:00 +26°C° 0 mm 1 m/s 667 mmHg 22%
    22:00 +25°C° 0 mm 1 m/s 667 mmHg 24%
    23:00 +24°C° 0 mm 1 m/s 666 mmHg 33%
    Mostrar mais